Temp
9 9 9 10 10 11 11 12 12 12 12 12 12 12 12 12 12 12 12 12 12 12 12 11 11 11 11 10 10 10 10 10 10 10 10 10 10 10 9 9 8 8 8 8 8 8 9 9 9 10 10 10 10 11 11 11 11 11 11 11 11 11 11 11 11 11 11 12 13 13 13 13 12 12 12 12 12 12 12 12 12 12 11 11 11
8 9 9 9 10 10 11 11 11 11 12 12 12 12 12 12 11 11 11 11 11 11 10 10 10 10 9 9 9 9 9 9 9 9 10 10 9 9 9 9 9 8 8 8 8 8 9 9 9 10 10 10 10 10 11 11 11 11 11 11 11 11 11 11 11 11 11 12 13 13 13 12 12 13 13 13 13 12 12 12 12 12 12 12 11
8 8 8 9 9 10 10 10 11 11 11 11 11 11 11 10 10 10 10 10 10 10 9 9 9 9 9 8 8 8 8 8 9 9 9 9 9 9 9 9 9 9 8 8 8 9 9 9 10 10 10 10 10 10 11 11 11 11 11 11 11 11 11 10 10 10 11 12 13 13 13 12 13 13 13 13 13 12 12 12 12 12 12 12 11
7 7 8 8 9 9 10 10 10 10 9 9 9 9 9 9 9 9 9 9 9 9 9 8 8 8 8 8 8 8 8 8 9 9 9 9 9 9 9 9 9 9 9 9 9 9 9 9 10 10 10 9 10 10 10 10 10 11 11 11 11 11 11 11 10 10 10 11 12 13 13 13 13 13 13 12 12 12 12 12 12 12 12 12 12
7 7 7 8 9 9 9 9 8 9 8 8 8 8 8 8 8 8 8 8 8 8 8 8 8 8 8 8 8 8 8 8 8 9 8 8 8 8 9 9 9 9 9 9 9 9 9 9 9 10 10 9 9 10 10 10 10 10 10 11 11 11 11 11 11 10 10 11 12 12 13 13 12 12 12 12 12 12 12 12 12 12 12 12 12
6 6 7 7 8 8 8 8 8 8 8 8 8 8 8 8 8 8 8 8 8 8 8 8 8 8 8 7 7 7 7 7 7 8 8 8 8 8 8 8 8 8 9 9 9 8 8 8 9 9 9 9 9 10 10 10 10 10 10 10 10 11 11 11 11 10 10 10 11 11 12 12 12 12 12 12 12 12 12 12 12 12 12 11 12
6 6 7 7 7 7 7 7 7 7 7 8 8 8 8 8 7 7 7 7 7 7 7 7 7 7 7 7 6 6 6 6 6 7 7 7 7 8 8 8 7 7 7 8 7 7 7 8 8 8 8 8 9 10 10 10 10 10 10 10 10 10 11 11 10 10 10 10 10 11 11 11 11 11 12 12 11 12 12 11 11 12 12 11 12
6 6 6 7 7 6 6 6 6 7 7 7 7 7 7 7 7 7 7 7 7 7 7 6 6 6 6 6 5 5 5 5 5 6 6 6 6 7 7 6 6 5 6 6 6 6 6 7 7 7 8 8 8 9 10 10 10 10 10 10 10 10 11 11 11 10 10 10 10 10 11 11 11 11 11 11 11 11 11 11 11 12 12 12 11
5 6 6 6 6 6 5 6 6 6 6 7 7 6 6 6 6 6 6 6 6 6 6 6 6 6 5 5 5 5 5 5 4 4 5 5 5 5 5 5 5 5 5 5 5 6 6 7 7 7 7 8 8 9 9 10 10 10 10 10 10 10 10 11 11 10 10 10 10 10 10 10 11 11 11 11 11 11 11 11 11 11 11 11 11
5 5 5 5 5 5 5 5 6 6 6 6 6 6 5 5 5 5 5 5 5 5 5 5 5 5 5 5 5 5 5 4 3 3 4 4 4 5 4 4 4 5 5 5 5 6 6 7 7 7 7 8 8 8 9 9 10 10 10 10 10 10 11 11 11 10 10 10 10 10 10 10 11 11 11 11 11 11 11 11 11 11 11 11 11
5 4 4 4 4 4 5 5 5 5 5 5 5 5 5 5 5 5 5 5 5 5 5 5 5 5 4 4 4 4 4 4 3 3 4 4 4 4 4 4 4 5 5 5 5 6 6 7 7 7 7 7 8 8 8 9 9 10 10 10 10 10 10 11 11 10 10 10 10 10 10 10 11 11 11 11 11 11 11 11 11 11 10 10 10
4 4 4 4 4 4 5 5 5 5 5 5 5 5 5 5 5 5 5 5 5 5 5 4 4 4 4 4 4 4 4 4 4 4 4 3 4 4 4 4 4 4 5 5 5 5 5 6 7 7 7 7 7 8 8 9 9 9 10 10 10 10 10 10 11 11 10 10 10 10 10 10 11 12 12 12 12 12 11 11 11 10 10 11 11
4 4 4 4 4 4 4 4 5 5 5 4 4 4 4 5 5 5 4 4 4 4 4 4 4 4 4 4 4 4 4 3 3 3 3 3 3 4 4 4 4 4 4 4 4 5 5 6 6 7 7 7 7 7 8 8 9 9 9 10 10 10 10 10 10 10 11 11 10 10 10 10 10 12 12 12 12 12 12 11 11 11 10 11 11
4 4 4 4 4 4 4 4 4 4 4 4 4 4 4 4 4 4 4 4 4 4 4 3 3 3 3 3 3 3 3 3 3 3 3 3 3 3 3 3 3 3 3 3 4 4 5 5 6 6 7 7 7 7 7 8 8 9 9 9 9 10 10 10 10 10 11 11 10 10 11 10 10 11 12 11 12 12 12 12 12 12 11 11 11
3 3 4 4 4 4 4 4 4 4 4 4 4 4 4 4 4 4 4 4 3 3 3 3 3 3 3 3 3 3 3 2 2 3 3 3 3 3 3 3 3 3 3 3 3 3 4 4 5 5 6 6 7 7 7 8 8 9 9 9 9 10 10 10 11 11 11 11 10 10 11 10 10 11 11 11 11 12 12 12 12 12 11 11 10
3 3 4 4 4 4 4 4 4 4 4 4 4 4 4 4 3 3 3 3 3 3 3 3 3 3 3 2 2 2 2 2 2 2 2 3 3 3 3 3 3 2 2 2 2 2 3 3 4 4 5 6 6 7 7 8 8 9 9 9 9 10 10 10 10 11 11 11 10 10 10 10 10 10 10 10 10 11 11 11 11 10 10 10 10
3 3 3 3 3 3 3 3 4 4 4 4 4 4 3 3 3 3 3 3 3 3 3 2 2 2 2 2 2 2 2 2 2 2 2 2 3 3 3 3 2 2 1 1 1 1 1 2 2 3 4 5 5 6 7 8 8 9 9 9 9 9 9 10 10 10 10 10 10 10 10 10 10 10 10 10 10 10 10 10 10 10 10 10 10
3 3 3 2 2 2 3 3 3 4 4 4 4 3 3 3 2 2 2 2 2 2 2 2 2 2 2 2 2 2 2 2 2 2 2 2 2 2 2 2 2 1 1 0 0 0 1 1 1 2 3 3 4 5 6 7 8 8 8 9 9 9 9 9 9 10 10 10 10 10 10 10 10 10 10 10 10 10 10 10 10 10 10 10 10
2 2 2 2 2 2 3 3 3 3 3 3 3 3 2 2 2 2 2 2 2 2 2 2 2 2 2 2 2 2 2 1 1 1 1 2 2 2 2 2 1 1 1 0 -0 -0 0 0 1 1 2 2 3 4 5 5 6 7 8 8 8 8 8 8 9 9 9 9 9 9 9 10 10 10 10 10 10 9 9 10 10 10 10 10 10
2 2 1 1 2 2 2 3 3 3 3 2 2 2 2 1 1 1 2 2 2 2 2 2 2 2 2 2 2 2 2 1 1 1 1 1 1 1 1 1 1 1 1 0 -0 -1 -0 0 0 1 1 2 2 3 4 4 5 6 7 7 7 7 7 8 8 9 9 9 9 9 9 9 9 9 9 9 9 9 9 9 9 9 9 9 9
1 1 1 1 2 2 2 3 3 2 2 2 2 1 1 1 1 1 2 2 2 2 2 2 2 2 2 2 2 2 2 2 1 1 1 1 1 1 1 0 0 0 0 -0 -1 -1 -1 -0 -0 0 1 1 2 2 3 3 4 4 5 5 5 5 6 7 7 8 8 8 8 8 8 8 8 8 8 9 9 9 9 9 9 9 9 9 9
1 1 1 1 1 2 2 2 2 2 1 1 1 1 1 1 2 2 2 2 2 2 2 2 2 2 2 2 2 2 2 2 1 1 1 1 1 0 0 -0 -0 -0 -0 -0 -1 -1 -1 -1 -0 -0 0 1 1 2 2 3 3 3 3 4 4 4 5 6 6 7 7 7 7 8 8 8 8 8 8 8 8 8 8 8 9 9 8 8 8
1 1 1 1 1 1 1 1 1 1 1 1 1 1 1 2 2 2 2 3 3 3 3 2 3 3 2 2 2 2 2 1 1 1 0 0 0 0 -0 -0 -0 -0 -0 -1 -1 -1 -1 -1 -0 -0 0 0 1 1 1 2 2 2 3 3 3 3 4 4 5 6 6 7 7 8 8 8 8 8 7 7 8 8 8 8 8 8 8 8 8
1 1 1 1 1 1 1 1 1 1 1 1 1 2 2 2 2 2 3 3 3 2 2 2 2 3 2 2 2 2 1 1 0 -0 -0 0 0 0 0 0 -0 -0 -0 -1 -1 -1 -1 -1 -1 -0 -0 0 0 1 1 1 1 1 2 2 3 3 3 3 4 5 5 6 6 6 6 6 6 6 6 6 7 7 7 8 8 8 8 7 7
1 1 1 1 1 1 1 1 1 1 1 1 1 2 2 2 3 3 3 3 2 2 2 2 2 2 2 2 2 1 1 1 -0 -1 -1 -0 -0 0 0 0 0 -0 -0 -0 -1 -1 -1 -1 -1 -1 -1 -0 0 0 0 0 1 1 1 2 2 2 2 2 2 3 3 3 3 3 3 4 4 4 4 4 5 6 7 7 7 8 8 7 7
1 1 1 1 1 1 1 1 1 1 1 1 2 2 2 2 2 2 2 2 2 2 2 2 2 2 2 1 1 1 1 0 -0 -1 -1 -1 -0 -0 0 0 0 0 -0 -0 -0 -1 -1 -1 -1 -1 -1 -1 -0 -0 -0 -0 0 0 0 1 1 1 1 1 1 2 1 1 1 2 2 2 2 3 3 4 5 5 5 5 6 7 7 7 7
1 1 1 1 1 1 1 1 1 1 1 1 2 2 2 2 2 2 2 2 2 2 2 2 2 1 1 1 1 0 0 -0 -1 -1 -2 -1 -1 -1 -0 -0 -0 0 -0 -0 -0 -0 -1 -1 -1 -1 -1 -1 -1 -1 -0 -0 -0 -0 -0 -0 0 0 0 0 0 1 1 1 1 1 1 2 2 3 3 4 4 3 3 4 5 5 5 6 6
1 1 1 1 1 1 1 1 1 1 1 1 2 2 1 1 1 1 1 1 1 1 1 1 1 1 1 1 1 0 -0 -1 -2 -2 -2 -2 -2 -1 -1 -1 -1 -0 -0 -0 -0 -0 -0 -0 -0 -1 -1 -1 -1 -1 -1 -1 -1 -1 -1 -0 -0 -0 -0 0 0 0 1 1 1 1 1 2 2 2 3 3 2 2 2 3 3 4 4 4 4
1 1 1 1 1 1 1 1 1 1 1 1 1 1 1 1 1 1 1 1 1 1 1 0 0 0 0 0 0 0 -1 -2 -2 -3 -3 -2 -2 -2 -1 -1 -1 -1 -1 -0 0 0 0 -0 -1 -1 -1 -1 -1 -1 -1 -1 -1 -1 -1 -0 -0 -0 -0 -0 0 0 0 1 1 1 1 1 2 2 2 2 2 1 1 2 2 3 4 4 4
1 1 1 1 1 1 1 1 1 1 1 1 1 1 1 1 1 1 1 1 0 0 0 0 0 -0 0 -0 -0 -0 -1 -1 -2 -2 -2 -2 -2 -2 -2 -2 -2 -1 -1 -1 -0 -0 -1 -1 -2 -2 -2 -2 -2 -2 -2 -1 -1 -1 -1 -1 -1 -1 -1 -1 -1 -0 0 0 1 1 1 1 1 1 2 2 2 2 1 1 2 2 3 3 2
2 2 1 1 1 1 1 1 1 1 1 1 1 1 1 1 1 1 1 0 0 0 0 0 -0 0 0 -0 -0 -0 -0 -1 -1 -1 -2 -2 -2 -2 -2 -2 -2 -2 -1 -1 -1 -1 -1 -2 -2 -2 -2 -2 -2 -2 -2 -2 -2 -2 -1 -1 -1 -1 -1 -1 -1 -1 -0 -0 0 0 -0 -0 -0 0 0 1 1 1 1 1 1 1 1 1 1
2 2 2 2 2 1 1 1 1 1 1 1 1 1 1 1 1 1 1 0 0 0 0 -0 -0 -0 -0 -0 -0 0 0 -0 -0 -1 -1 -2 -2 -2 -2 -1 -2 -2 -1 -1 -1 -2 -2 -2 -2 -2 -2 -3 -3 -2 -2 -2 -2 -2 -2 -2 -2 -2 -2 -1 -1 -1 -1 -1 -0 -1 -1 -1 -1 -1 -0 -0 -0 0 0 0 0 0 0 0 0
2 2 2 2 2 2 2 1 1 1 1 1 1 1 1 1 1 1 1 1 0 0 0 0 -0 -0 -0 -0 -0 -0 -0 0 0 -0 -1 -1 -1 -2 -2 -2 -2 -1 -1 -1 -2 -2 -2 -2 -2 -2 -2 -3 -3 -3 -3 -2 -2 -2 -2 -2 -2 -2 -2 -1 -1 -1 -1 -1 -1 -1 -1 -1 -1 -1 -1 -0 -0 -0 -0 -0 -0 -0 -0 -0 -0
2 2 2 2 2 2 2 1 1 1 1 1 1 1 1 1 1 1 1 1 0 0 0 0 -0 -0 -0 -0 -0 -0 -0 -0 0 0 -0 -1 -1 -1 -1 -1 -1 -1 -1 -2 -2 -2 -2 -2 -2 -2 -2 -2 -2 -2 -2 -2 -2 -2 -2 -2 -2 -2 -2 -2 -1 -1 -1 -1 -1 -1 -1 -1 -0 -0 -1 -1 -0 -0 -0 -0 -0 -0 -0 -0 -0
2 2 2 2 2 2 2 2 1 1 1 1 1 1 1 1 1 1 1 1 0 0 0 0 0 -0 -0 -0 -1 -1 -1 -0 -0 0 0 -0 -1 -1 -0 -0 -1 -1 -1 -2 -2 -2 -2 -2 -2 -2 -3 -3 -3 -2 -2 -2 -2 -2 -2 -2 -2 -2 -2 -2 -2 -2 -1 -1 -1 -1 -1 -1 -0 -0 -0 -1 -1 -1 -1 -1 -0 -0 -0 -0 -0
2 2 2 2 2 2 2 2 2 1 1 1 1 1 1 1 1 1 1 1 0 0 0 0 -0 -0 -0 -0 -1 -1 -1 -1 -0 -0 0 0 -0 -0 -0 -1 -1 -2 -2 -2 -2 -2 -2 -3 -3 -3 -3 -3 -3 -3 -3 -2 -2 -2 -2 -2 -2 -2 -2 -2 -2 -2 -2 -2 -1 -1 -1 -1 -1 -0 -0 -0 -1 -1 -1 -1 -1 -1 -0 -0 -0
2 2 2 2 2 2 2 2 2 2 1 1 1 1 1 1 1 1 1 1 0 0 0 0 -0 -0 -0 -0 -1 -1 -1 -1 -1 -0 -0 0 0 -0 -1 -1 -1 -2 -2 -2 -2 -2 -2 -3 -3 -3 -3 -3 -3 -3 -3 -3 -3 -2 -2 -2 -2 -2 -2 -2 -2 -2 -2 -2 -2 -2 -1 -1 -1 -1 -0 -0 -0 -0 -1 -1 -1 -1 -1 -1 -0
3 3 2 2 2 2 2 2 2 2 2 2 1 1 1 1 1 1 1 1 1 0 0 0 -0 -0 -0 -1 -1 -1 -1 -1 -1 -0 -0 0 0 0 -0 -1 -1 -1 -2 -2 -2 -2 -2 -3 -3 -3 -3 -3 -3 -3 -3 -3 -3 -3 -2 -2 -2 -2 -2 -2 -2 -2 -2 -2 -2 -2 -2 -1 -1 -1 -1 -1 -1 -0 -0 -0 -0 -1 -1 -1 -0
3 3 3 3 2 2 2 2 2 2 2 2 2 1 1 1 1 1 1 1 1 1 1 0 0 -0 -0 -1 -1 -1 -1 -1 -1 -1 -1 -0 -0 -0 -0 -1 -1 -1 -1 -1 -2 -2 -2 -2 -2 -2 -2 -2 -2 -2 -2 -2 -2 -2 -2 -2 -2 -2 -2 -2 -2 -2 -2 -2 -2 -2 -2 -2 -2 -1 -1 -1 -1 -1 -1 -1 -1 -1 -1 -1 -0
3 3 3 3 3 2 2 2 2 2 2 2 2 2 2 1 1 1 1 1 1 1 1 1 0 0 -0 -1 -1 -1 -1 -1 -1 -1 -1 -1 -1 -1 -0 -0 -1 -1 -1 -1 -1 -2 -2 -2 -2 -2 -2 -2 -2 -2 -2 -2 -2 -2 -2 -2 -2 -2 -2 -2 -2 -2 -2 -2 -2 -2 -2 -2 -2 -2 -2 -1 -1 -1 -1 -1 -1 -1 -1 -1 -1
3 3 3 3 3 2 2 2 2 2 2 2 2 2 2 2 1 1 1 1 1 1 1 1 1 0 -0 -0 -0 -1 -1 -1 -1 -1 -1 -1 -1 -1 -1 -1 -1 -1 -1 -1 -1 -1 -2 -2 -2 -2 -2 -2 -2 -2 -2 -2 -2 -2 -2 -2 -2 -2 -2 -2 -2 -2 -2 -2 -2 -2 -2 -2 -2 -2 -2 -2 -1 -1 -1 -1 -1 -1 -1 -1 -1
3 3 3 3 3 2 2 2 2 2 2 2 2 2 2 2 1 1 1 1 1 1 1 1 1 1 0 -0 -0 -1 -1 -1 -1 -1 -1 -1 -1 -1 -1 -1 -1 -1 -1 -1 -1 -1 -1 -1 -1 -2 -1 -1 -2 -2 -2 -2 -2 -2 -2 -2 -2 -2 -2 -2 -2 -2 -2 -2 -2 -2 -2 -2 -2 -2 -2 -2 -2 -1 -1 -1 -1 -1 -1 -1 -1
3 3 3 3 3 2 2 2 2 2 2 2 2 2 2 2 2 1 1 1 1 1 1 1 1 1 0 0 -0 -0 -0 -1 -1 -1 -1 -1 -1 -1 -1 -1 -1 -1 -1 -1 -1 -1 -1 -1 -2 -2 -2 -2 -2 -2 -2 -2 -2 -2 -2 -2 -2 -1 -1 -1 -1 -1 -1 -2 -2 -2 -2 -2 -2 -2 -2 -2 -2 -2 -1 -1 -1 -1 -1 -1 -1
3 3 3 3 2 2 2 2 2 2 2 2 2 2 2 2 2 2 1 1 1 1 1 1 1 1 1 1 0 0 0 -0 -0 -1 -1 -1 -1 -1 -1 -1 -1 -1 -1 -1 -1 -1 -1 -1 -1 -2 -2 -2 -2 -2 -2 -2 -2 -2 -2 -2 -1 -1 -1 -1 -1 -1 -1 -1 -1 -1 -1 -1 -1 -1 -1 -2 -2 -2 -2 -1 -1 -1 -1 -1 -1
3 3 3 3 3 2 2 2 2 2 2 2 2 2 2 2 2 2 2 2 1 1 1 1 1 1 1 1 1 1 1 1 0 0 -0 -0 -1 -1 -1 -1 -1 -1 -1 -1 -1 -1 -1 -1 -1 -1 -1 -2 -2 -2 -2 -2 -2 -2 -2 -2 -1 -1 -1 -1 -1 -1 -1 -1 -1 -1 -1 -1 -1 -1 -1 -1 -2 -2 -2 -2 -2 -1 -1 -1 -1
3 3 3 2 3 3 2 2 2 2 2 2 2 2 2 2 2 2 2 2 2 2 2 1 1 2 2 2 2 2 1 1 1 1 1 0 0 -0 -0 -1 -1 -1 -1 -1 -1 -1 -1 -1 -1 -1 -1 -1 -1 -2 -2 -2 -2 -2 -2 -2 -2 -2 -2 -2 -1 -1 -1 -1 -1 -1 -1 -1 -1 -1 -1 -1 -2 -2 -2 -2 -2 -2 -2 -2 -1
3 3 3 2 2 2 2 2 2 2 2 2 2 2 2 2 2 2 2 2 2 2 2 2 2 2 2 2 2 2 2 2 1 1 1 1 1 1 0 0 -0 -1 -1 -1 -1 -1 -1 -1 -1 -1 -1 -1 -1 -1 -1 -2 -2 -2 -2 -2 -2 -2 -2 -2 -2 -2 -2 -1 -1 -1 -1 -1 -1 -2 -2 -2 -2 -2 -2 -2 -2 -2 -2 -2 -2
3 3 3 3 2 2 2 2 2 2 2 2 2 2 2 2 2 2 2 2 2 2 2 2 2 2 2 2 2 2 2 2 2 1 1 1 1 1 1 1 0 -0 -0 -1 -1 -1 -1 -1 -1 -1 -1 -1 -1 -1 -2 -2 -2 -2 -2 -2 -2 -2 -2 -2 -2 -2 -2 -2 -2 -2 -2 -2 -2 -2 -2 -2 -2 -2 -2 -2 -2 -2 -2 -2 -2
3 3 3 3 2 2 2 2 2 2 2 2 2 2 2 2 2 2 2 2 2 2 2 2 2 2 2 2 2 2 2 2 2 2 1 1 1 1 1 1 1 1 0 -0 -1 -1 -1 -1 -1 -1 -1 -1 -1 -2 -2 -2 -2 -2 -2 -2 -2 -2 -2 -2 -2 -2 -2 -2 -2 -2 -2 -2 -2 -2 -2 -2 -2 -2 -2 -2 -2 -2 -2 -2 -2
2 2 2 2 2 2 2 2 2 2 2 2 2 2 2 2 2 2 2 2 2 2 2 2 2 2 2 2 2 2 2 2 2 2 2 1 1 1 1 1 1 1 1 0 0 -0 -1 -1 -1 -2 -2 -2 -2 -2 -2 -2 -2 -2 -2 -2 -2 -2 -2 -2 -2 -2 -2 -2 -2 -2 -2 -2 -2 -2 -2 -2 -2 -2 -2 -2 -2 -2 -2 -2 -2
2 2 2 2 3 3 3 2 2 2 2 2 2 2 2 2 2 2 2 2 2 2 2 2 2 2 2 2 2 2 2 1 1 1 1 1 2 1 1 1 1 1 1 1 1 0 -0 -1 -1 -1 -2 -2 -2 -2 -2 -2 -2 -2 -2 -2 -2 -2 -2 -2 -2 -2 -2 -2 -2 -2 -2 -2 -2 -2 -3 -2 -2 -2 -2 -2 -2 -2 -2 -2 -2
Height
1535 1535 1534 1533 1533 1533 1533 1532 1532 1531 1531 1530 1530 1529 1528 1528 1527 1526 1526 1525 1524 1522 1521 1520 1519 1517 1516 1514 1512 1511 1509 1508 1506 1505 1503 1502 1501 1499 1498 1496 1495 1494 1493 1492 1492 1491 1490 1488 1487 1486 1486 1485 1484 1483 1482 1481 1481 1480 1479 1479 1478 1478 1478 1478 1477 1477 1480 1481 1482 1484 1485 1487 1487 1488 1491 1492 1494 1496 1498 1501 1503 1505 1507 1509 1511
1535 1535 1534 1534 1534 1533 1533 1533 1532 1532 1531 1531 1530 1529 1529 1528 1528 1527 1526 1525 1524 1523 1521 1520 1519 1517 1516 1514 1513 1511 1509 1508 1506 1504 1502 1501 1499 1498 1496 1494 1493 1491 1490 1489 1489 1488 1487 1485 1484 1483 1483 1482 1481 1480 1479 1478 1478 1477 1476 1475 1474 1474 1475 1475 1474 1474 1476 1477 1479 1481 1481 1482 1483 1485 1487 1488 1489 1492 1494 1496 1498 1500 1503 1505 1507
1535 1535 1534 1534 1534 1534 1534 1533 1533 1532 1532 1531 1531 1530 1530 1529 1528 1527 1526 1525 1524 1523 1522 1520 1519 1518 1516 1514 1513 1511 1509 1508 1506 1504 1502 1500 1498 1496 1495 1493 1491 1489 1488 1487 1486 1485 1484 1483 1481 1480 1479 1478 1477 1477 1476 1475 1475 1474 1473 1472 1471 1471 1471 1471 1471 1471 1472 1474 1476 1477 1478 1479 1480 1481 1483 1484 1486 1488 1489 1492 1494 1496 1498 1500 1502
1536 1535 1535 1534 1534 1534 1534 1534 1533 1533 1533 1532 1532 1531 1530 1530 1529 1528 1527 1526 1524 1523 1522 1521 1519 1518 1516 1514 1512 1510 1509 1507 1505 1503 1501 1499 1497 1495 1493 1492 1490 1488 1486 1485 1483 1482 1481 1480 1479 1478 1477 1475 1474 1474 1473 1472 1471 1470 1469 1469 1468 1468 1467 1467 1467 1467 1468 1470 1471 1473 1474 1475 1476 1477 1479 1481 1482 1483 1485 1488 1490 1492 1494 1496 1498
1536 1536 1535 1535 1535 1535 1535 1534 1534 1534 1534 1533 1533 1532 1531 1530 1529 1528 1527 1526 1525 1523 1522 1521 1519 1517 1515 1514 1512 1510 1508 1506 1504 1502 1500 1498 1495 1493 1492 1490 1488 1487 1485 1483 1481 1479 1478 1477 1476 1475 1474 1473 1472 1471 1470 1469 1468 1467 1466 1465 1465 1464 1464 1464 1464 1464 1465 1466 1467 1469 1470 1471 1472 1473 1474 1476 1478 1479 1481 1483 1485 1487 1490 1492 1493
1536 1536 1536 1535 1535 1535 1535 1535 1535 1535 1535 1534 1533 1532 1531 1530 1530 1528 1527 1526 1525 1523 1522 1520 1519 1517 1515 1513 1511 1509 1507 1505 1503 1501 1499 1497 1495 1492 1490 1488 1486 1485 1483 1481 1479 1477 1476 1474 1473 1472 1471 1470 1469 1468 1467 1466 1465 1464 1463 1462 1462 1461 1461 1461 1461 1462 1462 1462 1464 1465 1466 1466 1467 1468 1470 1472 1473 1474 1477 1478 1479 1482 1485 1487 1489
1537 1536 1536 1536 1536 1536 1536 1536 1536 1536 1535 1534 1533 1532 1532 1531 1530 1529 1527 1526 1525 1523 1522 1520 1519 1517 1515 1514 1512 1509 1507 1505 1502 1500 1498 1496 1494 1491 1489 1487 1485 1483 1481 1479 1477 1476 1474 1472 1471 1470 1469 1468 1466 1465 1464 1462 1461 1460 1460 1459 1459 1458 1458 1458 1458 1458 1459 1459 1461 1461 1462 1463 1464 1464 1466 1468 1469 1470 1472 1473 1475 1478 1481 1482 1484
1537 1537 1537 1537 1537 1537 1537 1537 1537 1536 1535 1535 1534 1533 1532 1531 1530 1529 1528 1526 1525 1523 1522 1521 1519 1518 1516 1514 1512 1510 1507 1505 1501 1499 1497 1495 1493 1491 1488 1486 1483 1481 1480 1478 1476 1474 1473 1471 1469 1467 1466 1465 1463 1462 1461 1459 1458 1457 1456 1456 1456 1455 1455 1455 1455 1455 1455 1456 1457 1458 1459 1460 1460 1461 1463 1464 1465 1466 1468 1469 1471 1474 1476 1477 1480
1538 1538 1538 1538 1538 1537 1538 1537 1537 1537 1536 1535 1534 1533 1533 1532 1531 1530 1528 1527 1525 1524 1523 1522 1520 1518 1516 1514 1512 1510 1507 1505 1502 1499 1497 1495 1493 1490 1488 1486 1483 1481 1479 1477 1475 1473 1471 1469 1467 1465 1463 1462 1460 1459 1458 1456 1455 1454 1453 1453 1453 1452 1452 1452 1452 1452 1452 1452 1453 1454 1455 1456 1456 1457 1458 1459 1460 1462 1465 1466 1468 1470 1472 1473 1476
1538 1538 1538 1538 1538 1538 1538 1538 1537 1537 1536 1536 1535 1534 1534 1533 1531 1530 1529 1527 1526 1525 1524 1522 1521 1519 1517 1515 1513 1510 1508 1505 1503 1501 1498 1496 1493 1490 1488 1486 1483 1481 1478 1475 1474 1472 1470 1468 1465 1463 1461 1459 1457 1455 1454 1453 1452 1451 1450 1450 1449 1449 1449 1449 1449 1449 1449 1449 1449 1450 1451 1451 1452 1453 1454 1455 1457 1460 1461 1462 1464 1466 1469 1470 1471
1539 1539 1539 1539 1539 1539 1539 1538 1538 1538 1537 1537 1536 1535 1535 1534 1532 1531 1529 1528 1527 1526 1524 1523 1521 1519 1517 1515 1513 1511 1508 1506 1504 1502 1499 1497 1494 1491 1488 1486 1483 1480 1477 1475 1472 1470 1468 1466 1463 1461 1458 1456 1453 1452 1450 1449 1448 1447 1446 1446 1446 1446 1446 1446 1445 1445 1445 1445 1446 1447 1447 1447 1448 1450 1451 1453 1455 1456 1457 1459 1460 1462 1464 1465 1466
1540 1539 1539 1539 1539 1539 1539 1539 1539 1539 1538 1538 1537 1537 1536 1535 1533 1532 1530 1529 1528 1527 1525 1523 1522 1520 1518 1516 1514 1511 1509 1507 1504 1502 1499 1497 1494 1491 1488 1485 1482 1480 1477 1474 1471 1469 1467 1464 1462 1459 1456 1453 1451 1448 1446 1445 1444 1443 1442 1442 1442 1442 1442 1442 1442 1442 1442 1442 1442 1442 1443 1443 1445 1446 1447 1449 1451 1452 1454 1455 1456 1457 1459 1460 1461
1541 1540 1540 1540 1540 1540 1540 1540 1540 1540 1539 1539 1538 1538 1537 1535 1534 1533 1531 1531 1529 1528 1526 1524 1523 1521 1519 1516 1514 1511 1509 1507 1505 1502 1500 1497 1495 1492 1489 1486 1483 1480 1477 1474 1471 1468 1465 1463 1460 1457 1454 1451 1448 1446 1443 1441 1440 1439 1438 1438 1438 1438 1438 1438 1438 1439 1439 1439 1438 1438 1439 1440 1441 1441 1443 1445 1448 1449 1449 1450 1451 1453 1454 1455 1457
1542 1541 1541 1541 1540 1540 1541 1541 1541 1540 1540 1540 1539 1538 1537 1536 1535 1534 1533 1532 1531 1529 1527 1526 1524 1522 1519 1517 1515 1512 1510 1508 1506 1503 1501 1498 1495 1492 1489 1486 1483 1480 1477 1474 1470 1467 1464 1461 1458 1456 1453 1450 1446 1443 1440 1438 1436 1435 1435 1434 1434 1434 1434 1434 1435 1435 1435 1435 1434 1434 1436 1437 1437 1439 1440 1442 1444 1444 1445 1446 1447 1448 1450 1452 1454
1542 1542 1541 1541 1541 1541 1542 1542 1541 1541 1541 1540 1540 1539 1538 1537 1536 1535 1534 1533 1532 1530 1528 1527 1525 1523 1520 1518 1516 1514 1511 1509 1507 1504 1501 1499 1496 1492 1489 1486 1483 1480 1477 1474 1471 1467 1464 1461 1458 1455 1451 1448 1445 1441 1438 1435 1433 1431 1431 1430 1430 1430 1430 1431 1431 1431 1431 1431 1431 1431 1433 1434 1435 1437 1438 1439 1440 1440 1442 1443 1444 1446 1447 1448 1450
1543 1542 1542 1542 1542 1542 1543 1543 1542 1542 1542 1541 1541 1540 1538 1538 1537 1536 1536 1535 1533 1532 1530 1528 1526 1524 1522 1519 1517 1515 1513 1510 1508 1505 1502 1499 1496 1493 1489 1486 1483 1480 1477 1474 1471 1468 1464 1461 1457 1454 1451 1447 1444 1440 1436 1433 1430 1428 1427 1427 1427 1427 1427 1427 1427 1428 1428 1428 1428 1428 1430 1431 1432 1434 1435 1435 1436 1437 1438 1440 1441 1442 1443 1444 1446
1543 1543 1543 1543 1543 1544 1544 1544 1543 1543 1543 1542 1541 1540 1539 1539 1538 1538 1537 1536 1534 1533 1531 1529 1527 1525 1523 1520 1518 1516 1514 1511 1509 1506 1503 1500 1496 1493 1490 1486 1483 1480 1478 1475 1472 1469 1465 1462 1458 1454 1450 1446 1442 1438 1435 1431 1429 1426 1423 1423 1423 1423 1423 1423 1423 1424 1425 1425 1425 1426 1427 1428 1429 1430 1431 1432 1433 1434 1435 1435 1436 1438 1440 1441 1441
1544 1544 1544 1544 1545 1545 1545 1545 1544 1544 1544 1543 1541 1541 1540 1540 1539 1539 1538 1537 1535 1534 1532 1530 1528 1526 1524 1521 1519 1517 1515 1512 1510 1507 1504 1501 1497 1494 1491 1487 1484 1481 1478 1476 1473 1469 1466 1463 1459 1454 1450 1446 1442 1438 1434 1430 1427 1424 1421 1420 1420 1420 1420 1420 1420 1421 1422 1422 1423 1423 1424 1424 1425 1426 1428 1428 1429 1431 1431 1431 1432 1434 1436 1436 1437
1545 1545 1545 1546 1546 1546 1546 1546 1546 1545 1544 1543 1542 1541 1541 1541 1541 1540 1539 1538 1537 1535 1533 1531 1529 1527 1525 1523 1521 1519 1516 1514 1511 1508 1505 1502 1498 1495 1492 1488 1485 1482 1479 1476 1473 1470 1467 1463 1459 1455 1451 1447 1442 1438 1434 1430 1427 1424 1420 1418 1417 1418 1417 1417 1418 1418 1419 1419 1420 1421 1421 1422 1422 1423 1424 1425 1426 1427 1427 1428 1429 1430 1431 1432 1434
1546 1547 1547 1548 1548 1548 1548 1547 1547 1546 1545 1544 1543 1543 1543 1542 1542 1542 1541 1539 1538 1536 1534 1532 1530 1529 1527 1525 1523 1520 1518 1515 1512 1509 1506 1503 1500 1497 1493 1489 1486 1483 1480 1477 1474 1470 1467 1463 1460 1456 1452 1448 1443 1439 1435 1431 1428 1425 1420 1417 1417 1417 1416 1415 1415 1416 1417 1417 1418 1419 1419 1419 1420 1420 1421 1422 1423 1424 1424 1425 1425 1426 1427 1429 1430
1548 1549 1549 1549 1549 1549 1549 1549 1548 1547 1546 1545 1545 1545 1545 1544 1544 1543 1542 1540 1539 1537 1535 1534 1532 1530 1528 1526 1524 1521 1518 1516 1513 1511 1508 1505 1502 1499 1495 1492 1489 1486 1483 1479 1475 1471 1468 1465 1461 1458 1454 1450 1445 1441 1437 1433 1429 1426 1423 1419 1418 1417 1417 1415 1415 1415 1415 1416 1417 1417 1418 1418 1418 1419 1419 1419 1420 1421 1421 1422 1423 1423 1425 1427 1427
1550 1550 1551 1551 1551 1551 1551 1550 1549 1548 1548 1547 1547 1547 1546 1546 1545 1544 1543 1541 1540 1538 1537 1535 1533 1531 1529 1527 1525 1522 1520 1517 1515 1512 1510 1507 1504 1501 1498 1495 1492 1489 1485 1481 1477 1473 1470 1467 1464 1460 1457 1452 1447 1443 1438 1434 1431 1429 1426 1423 1421 1419 1417 1416 1415 1415 1415 1416 1416 1416 1417 1418 1418 1418 1419 1419 1418 1418 1419 1420 1421 1422 1423 1424 1425
1551 1552 1552 1552 1552 1552 1552 1551 1550 1550 1549 1549 1549 1548 1548 1547 1546 1545 1543 1542 1541 1539 1538 1536 1535 1532 1530 1528 1525 1523 1521 1518 1516 1514 1512 1509 1507 1504 1501 1499 1495 1492 1488 1484 1480 1477 1474 1470 1467 1463 1460 1455 1450 1445 1441 1437 1435 1432 1429 1426 1424 1422 1419 1416 1416 1416 1416 1415 1416 1416 1417 1418 1418 1419 1418 1418 1418 1418 1418 1418 1419 1420 1420 1421 1422
1553 1553 1553 1554 1554 1554 1553 1553 1552 1552 1551 1551 1551 1550 1549 1548 1547 1546 1545 1543 1542 1540 1539 1537 1535 1532 1530 1528 1526 1524 1522 1520 1518 1516 1514 1511 1509 1506 1504 1501 1498 1495 1491 1488 1484 1481 1477 1474 1470 1466 1462 1457 1453 1449 1445 1442 1438 1435 1431 1429 1427 1425 1422 1419 1417 1417 1416 1416 1417 1418 1418 1419 1419 1419 1418 1418 1418 1418 1418 1418 1418 1418 1418 1419 1420
1554 1554 1555 1555 1555 1555 1555 1555 1554 1554 1553 1553 1552 1551 1550 1549 1548 1547 1546 1545 1543 1542 1540 1538 1535 1533 1531 1529 1527 1525 1523 1521 1519 1517 1515 1513 1511 1509 1506 1503 1501 1498 1495 1492 1489 1486 1482 1478 1474 1469 1464 1460 1456 1452 1448 1445 1442 1438 1435 1432 1430 1429 1428 1425 1421 1419 1418 1419 1421 1421 1421 1421 1421 1421 1420 1420 1419 1418 1418 1418 1418 1417 1418 1418 1419
1555 1555 1556 1556 1556 1556 1556 1556 1556 1555 1555 1554 1553 1552 1551 1551 1550 1549 1548 1546 1545 1543 1541 1539 1536 1534 1532 1530 1528 1527 1525 1523 1521 1519 1517 1515 1513 1511 1509 1506 1503 1501 1498 1495 1492 1489 1485 1481 1477 1472 1468 1464 1460 1456 1452 1449 1445 1441 1439 1437 1435 1434 1433 1431 1427 1424 1423 1425 1426 1425 1425 1425 1425 1424 1423 1422 1420 1419 1419 1419 1418 1418 1418 1418 1418
1556 1557 1557 1557 1557 1557 1558 1558 1557 1557 1556 1555 1554 1554 1553 1552 1552 1551 1549 1548 1546 1544 1542 1540 1538 1536 1534 1532 1530 1528 1526 1524 1522 1520 1518 1517 1515 1513 1511 1508 1505 1503 1500 1497 1494 1491 1488 1484 1480 1476 1472 1468 1464 1460 1457 1453 1449 1446 1444 1442 1440 1439 1438 1436 1433 1430 1430 1431 1432 1431 1430 1430 1428 1427 1425 1424 1423 1422 1422 1421 1421 1420 1420 1420 1420
1557 1558 1558 1558 1558 1558 1559 1559 1558 1558 1557 1557 1556 1555 1555 1554 1553 1552 1550 1549 1547 1545 1543 1541 1539 1537 1536 1534 1532 1530 1528 1525 1523 1522 1521 1520 1518 1515 1513 1510 1507 1504 1502 1499 1497 1494 1490 1486 1483 1479 1475 1471 1467 1464 1461 1458 1455 1452 1449 1447 1445 1443 1442 1440 1437 1435 1435 1437 1436 1435 1433 1432 1431 1430 1429 1428 1427 1426 1426 1425 1424 1423 1423 1422 1422
1558 1558 1559 1559 1559 1559 1559 1559 1559 1559 1558 1558 1557 1557 1556 1555 1554 1553 1551 1550 1548 1546 1545 1543 1541 1540 1538 1536 1534 1532 1529 1528 1527 1526 1525 1523 1521 1518 1515 1513 1510 1508 1505 1503 1500 1496 1492 1488 1484 1481 1478 1475 1471 1468 1466 1463 1460 1457 1454 1451 1449 1447 1445 1443 1441 1439 1439 1440 1439 1437 1436 1435 1434 1433 1432 1431 1430 1430 1430 1429 1428 1427 1427 1425 1425
1559 1559 1559 1560 1560 1560 1560 1560 1560 1560 1559 1559 1559 1558 1557 1556 1555 1554 1553 1551 1550 1548 1547 1545 1544 1542 1540 1538 1536 1534 1533 1532 1531 1529 1527 1525 1523 1521 1519 1516 1513 1511 1509 1505 1502 1497 1494 1491 1488 1485 1482 1479 1476 1474 1471 1469 1465 1462 1459 1457 1455 1453 1451 1449 1447 1445 1444 1443 1441 1440 1439 1439 1438 1437 1435 1434 1433 1433 1433 1433 1433 1432 1431 1430 1429
1559 1560 1560 1560 1561 1561 1561 1561 1561 1561 1560 1560 1560 1559 1558 1557 1556 1555 1554 1553 1551 1550 1548 1547 1546 1544 1543 1541 1540 1538 1537 1535 1533 1531 1529 1527 1525 1523 1521 1519 1516 1513 1511 1507 1503 1500 1497 1495 1492 1490 1488 1485 1482 1480 1478 1475 1471 1468 1466 1464 1462 1460 1457 1454 1452 1451 1449 1446 1443 1443 1444 1444 1443 1442 1440 1438 1437 1436 1436 1436 1437 1436 1436 1435 1435
1560 1560 1561 1561 1561 1561 1562 1561 1562 1562 1561 1561 1561 1560 1559 1558 1557 1556 1555 1554 1553 1552 1550 1549 1548 1546 1545 1543 1542 1540 1539 1537 1535 1533 1531 1529 1527 1525 1523 1521 1518 1516 1513 1509 1505 1503 1501 1499 1497 1495 1492 1490 1488 1486 1483 1480 1477 1474 1472 1469 1467 1465 1462 1460 1458 1456 1453 1450 1448 1448 1450 1451 1449 1448 1446 1444 1442 1440 1440 1440 1441 1441 1441 1440 1440
1560 1560 1561 1561 1562 1562 1562 1562 1562 1562 1562 1562 1561 1560 1560 1559 1558 1557 1556 1555 1554 1553 1552 1550 1549 1548 1547 1545 1544 1542 1540 1539 1537 1535 1533 1530 1529 1527 1525 1523 1520 1518 1514 1511 1508 1507 1505 1503 1501 1499 1496 1494 1492 1490 1488 1485 1482 1480 1477 1475 1472 1470 1468 1466 1464 1461 1458 1456 1455 1456 1456 1456 1454 1453 1451 1449 1447 1447 1446 1446 1447 1447 1446 1445 1445
1560 1561 1561 1562 1562 1562 1562 1563 1563 1563 1562 1562 1561 1561 1560 1559 1558 1558 1557 1556 1555 1554 1553 1552 1551 1549 1548 1547 1545 1544 1542 1540 1538 1537 1534 1532 1531 1529 1527 1525 1522 1519 1516 1513 1512 1510 1509 1507 1505 1503 1500 1498 1496 1494 1492 1489 1487 1485 1483 1480 1478 1475 1473 1471 1469 1466 1464 1463 1462 1461 1461 1460 1459 1457 1456 1454 1453 1453 1453 1453 1453 1453 1452 1452 1451
1560 1561 1562 1562 1562 1563 1563 1563 1563 1563 1562 1562 1562 1561 1560 1559 1559 1558 1557 1556 1555 1555 1554 1553 1552 1551 1549 1548 1547 1545 1544 1542 1540 1538 1536 1534 1532 1531 1529 1526 1523 1520 1518 1516 1515 1514 1512 1510 1508 1506 1504 1502 1500 1498 1496 1494 1492 1490 1488 1486 1483 1481 1479 1477 1475 1473 1471 1469 1468 1467 1466 1465 1463 1462 1462 1460 1459 1459 1458 1459 1459 1459 1458 1458 1457
1560 1561 1561 1562 1563 1563 1563 1563 1563 1563 1562 1562 1562 1561 1560 1560 1559 1558 1557 1557 1556 1555 1554 1554 1553 1552 1551 1549 1548 1546 1545 1543 1541 1540 1538 1536 1534 1532 1529 1526 1524 1522 1521 1519 1518 1516 1515 1513 1512 1510 1508 1506 1504 1502 1500 1498 1496 1494 1492 1490 1488 1486 1484 1482 1480 1478 1476 1475 1474 1472 1471 1470 1469 1468 1467 1466 1465 1464 1464 1464 1464 1464 1464 1463 1463
1560 1561 1561 1562 1562 1563 1563 1563 1562 1562 1562 1562 1562 1561 1561 1560 1559 1558 1558 1557 1556 1555 1555 1554 1553 1553 1551 1550 1549 1548 1546 1544 1543 1541 1539 1537 1535 1533 1530 1528 1526 1525 1523 1522 1520 1519 1517 1516 1514 1512 1511 1509 1507 1505 1503 1501 1500 1498 1496 1494 1492 1490 1489 1487 1485 1483 1481 1480 1478 1477 1475 1474 1474 1473 1472 1471 1470 1470 1469 1469 1468 1469 1469 1469 1468
1560 1561 1561 1562 1562 1562 1562 1562 1562 1562 1562 1562 1562 1561 1561 1560 1560 1559 1558 1558 1557 1556 1555 1554 1554 1553 1552 1551 1550 1548 1547 1546 1544 1542 1541 1539 1536 1534 1532 1530 1529 1527 1525 1524 1522 1521 1519 1518 1516 1515 1513 1511 1509 1508 1506 1504 1503 1501 1499 1498 1496 1494 1492 1491 1489 1487 1485 1484 1483 1481 1480 1479 1478 1478 1477 1476 1475 1474 1474 1473 1473 1473 1473 1473 1473
1559 1560 1561 1561 1561 1562 1562 1562 1562 1562 1561 1561 1561 1561 1560 1560 1560 1559 1558 1558 1557 1556 1556 1555 1554 1553 1552 1551 1550 1549 1548 1546 1545 1543 1541 1539 1537 1536 1534 1532 1530 1529 1527 1526 1524 1523 1521 1520 1518 1517 1515 1513 1511 1510 1508 1507 1505 1504 1502 1501 1499 1498 1496 1494 1492 1490 1489 1488 1486 1485 1484 1483 1483 1483 1482 1480 1479 1479 1478 1477 1477 1477 1477 1477 1477
1559 1560 1560 1561 1561 1561 1561 1561 1561 1561 1561 1561 1561 1561 1560 1560 1559 1559 1558 1558 1557 1557 1556 1555 1554 1553 1552 1552 1550 1549 1548 1547 1545 1544 1542 1540 1539 1537 1535 1534 1532 1530 1529 1527 1526 1524 1523 1521 1520 1519 1517 1515 1514 1512 1510 1509 1508 1506 1505 1503 1502 1500 1499 1497 1496 1494 1493 1491 1490 1489 1488 1488 1487 1487 1485 1484 1483 1482 1482 1481 1481 1481 1481 1481 1481
1558 1559 1560 1560 1560 1560 1560 1560 1561 1561 1561 1560 1560 1560 1560 1559 1559 1559 1558 1558 1557 1557 1556 1555 1554 1553 1553 1552 1551 1550 1548 1547 1546 1545 1543 1541 1540 1538 1537 1535 1533 1532 1530 1529 1527 1526 1525 1523 1522 1520 1519 1517 1516 1514 1513 1511 1510 1508 1507 1505 1504 1503 1501 1500 1499 1497 1496 1495 1494 1492 1491 1491 1490 1489 1488 1487 1487 1486 1486 1485 1485 1485 1484 1484 1484
1558 1559 1559 1559 1559 1559 1560 1560 1560 1560 1560 1560 1560 1560 1559 1559 1559 1559 1558 1558 1557 1557 1556 1555 1555 1554 1553 1552 1551 1550 1549 1547 1546 1545 1544 1542 1541 1539 1538 1536 1535 1533 1532 1530 1529 1527 1526 1525 1523 1522 1520 1519 1518 1516 1515 1513 1511 1510 1509 1507 1506 1504 1503 1502 1501 1499 1498 1497 1496 1495 1494 1493 1492 1491 1491 1490 1490 1489 1489 1488 1488 1488 1488 1488 1488
1557 1558 1558 1558 1558 1559 1559 1559 1559 1559 1559 1559 1559 1559 1559 1559 1558 1558 1558 1557 1557 1556 1556 1555 1554 1553 1553 1552 1551 1550 1549 1548 1546 1545 1544 1543 1542 1540 1539 1537 1536 1534 1533 1531 1530 1528 1527 1526 1525 1523 1522 1520 1519 1517 1516 1514 1513 1512 1510 1509 1507 1506 1504 1503 1502 1501 1499 1498 1497 1496 1496 1495 1494 1493 1493 1492 1492 1492 1491 1491 1491 1491 1490 1490 1490
1557 1557 1558 1558 1558 1558 1558 1558 1559 1559 1559 1559 1559 1559 1559 1558 1558 1557 1557 1557 1556 1556 1555 1555 1554 1553 1552 1551 1550 1550 1549 1547 1546 1545 1544 1543 1542 1541 1539 1538 1537 1535 1534 1532 1531 1530 1528 1527 1526 1525 1523 1522 1521 1519 1518 1516 1515 1513 1512 1510 1509 1507 1506 1504 1503 1502 1501 1499 1499 1498 1497 1496 1496 1495 1495 1494 1494 1494 1493 1493 1493 1493 1493 1492 1492
1556 1556 1556 1557 1557 1557 1557 1557 1558 1558 1558 1558 1558 1558 1558 1558 1557 1557 1556 1556 1555 1555 1555 1554 1554 1553 1552 1551 1550 1549 1548 1547 1546 1545 1544 1543 1542 1541 1540 1538 1537 1536 1535 1533 1532 1531 1529 1528 1527 1526 1524 1523 1522 1520 1519 1518 1516 1515 1513 1512 1510 1509 1507 1506 1505 1503 1502 1501 1500 1499 1498 1498 1497 1496 1496 1495 1495 1495 1495 1495 1494 1494 1494 1494 1494
1555 1555 1555 1556 1556 1556 1556 1557 1557 1557 1558 1558 1558 1557 1557 1557 1557 1556 1556 1555 1555 1554 1554 1553 1553 1552 1552 1551 1550 1549 1548 1547 1546 1545 1544 1543 1542 1541 1540 1539 1538 1536 1535 1534 1533 1532 1530 1529 1528 1527 1525 1524 1523 1522 1520 1519 1518 1516 1515 1513 1512 1510 1509 1508 1507 1505 1504 1503 1502 1501 1500 1499 1498 1498 1497 1496 1496 1496 1496 1496 1495 1495 1495 1495 1495
1554 1554 1554 1555 1555 1555 1556 1556 1556 1556 1556 1556 1557 1557 1556 1556 1556 1556 1555 1555 1554 1554 1553 1553 1552 1552 1551 1550 1549 1549 1548 1547 1546 1545 1544 1543 1541 1540 1539 1538 1538 1537 1536 1534 1533 1532 1531 1530 1529 1528 1526 1525 1524 1523 1521 1520 1519 1518 1516 1515 1514 1512 1511 1510 1508 1507 1506 1505 1503 1502 1501 1500 1500 1499 1498 1498 1497 1497 1497 1496 1496 1496 1496 1496 1496
1552 1553 1553 1554 1554 1554 1555 1555 1555 1555 1555 1555 1555 1555 1555 1555 1555 1554 1554 1554 1553 1553 1552 1552 1551 1551 1550 1550 1549 1548 1547 1546 1545 1544 1543 1542 1541 1540 1539 1538 1537 1536 1535 1534 1533 1532 1531 1530 1529 1528 1527 1526 1525 1524 1522 1521 1520 1519 1518 1517 1515 1514 1513 1511 1510 1509 1507 1506 1505 1504 1503 1502 1501 1500 1499 1499 1498 1498 1497 1497 1497 1497 1497 1496 1496
1551 1551 1552 1552 1553 1553 1553 1553 1553 1554 1554 1554 1554 1554 1554 1554 1553 1553 1553 1553 1552 1551 1551 1551 1550 1549 1549 1548 1548 1547 1546 1545 1545 1544 1543 1542 1541 1540 1539 1538 1537 1536 1535 1534 1533 1532 1531 1530 1529 1528 1527 1526 1525 1524 1523 1522 1521 1520 1519 1518 1516 1515 1514 1513 1512 1510 1509 1508 1507 1505 1504 1503 1502 1501 1500 1500 1499 1499 1498 1498 1497 1497 1497 1497 1497
1549 1550 1550 1551 1551 1551 1552 1552 1552 1552 1552 1552 1552 1552 1552 1552 1552 1552 1551 1551 1551 1550 1550 1549 1549 1548 1548 1547 1546 1546 1545 1544 1543 1542 1542 1541 1540 1539 1538 1537 1536 1535 1534 1533 1532 1531 1531 1530 1529 1528 1527 1526 1525 1524 1523 1522 1521 1520 1519 1518 1517 1516 1515 1514 1513 1512 1510 1509 1508 1507 1506 1504 1503 1502 1502 1501 1500 1500 1499 1499 1498 1497 1497 1497 1497
1547 1548 1549 1549 1549 1550 1550 1550 1550 1550 1550 1550 1550 1550 1550 1550 1550 1550 1550 1549 1549 1549 1548 1548 1547 1547 1546 1545 1545 1544 1543 1543 1542 1541 1540 1539 1539 1538 1537 1536 1535 1534 1533 1532 1531 1530 1529 1529 1528 1527 1527 1526 1525 1524 1523 1522 1521 1520 1519 1518 1517 1516 1515 1515 1514 1512 1511 1510 1509 1508 1507 1506 1504 1503 1503 1502 1501 1500 1499 1499 1498 1498 1497 1497 1496
Wind_Speed
8 9 9 8 8 7 5 5 5 6 8 8 9 10 11 11 12 13 14 14 16 17 18 19 20 21 22 23 23 24 25 25 25 26 25 24 23 23 22 23 23 23 23 23 22 23 24 25 25 23 22 23 24 24 24 24 24 25 25 27 30 33 34 36 38 37 33 30 29 29 27 26 27 26 26 30 33 36 37 37 36 35 34 34 33
9 10 10 8 7 5 4 4 5 6 7 8 8 9 10 11 12 13 14 15 16 17 18 19 20 20 21 22 22 23 24 24 25 26 26 26 24 23 22 22 23 23 23 23 22 23 25 26 25 23 22 23 23 23 23 23 23 24 26 27 28 29 31 33 35 37 36 31 29 32 31 28 28 26 25 28 31 35 37 38 38 38 36 35 34
9 10 10 9 6 3 3 3 5 6 7 8 9 10 11 12 13 14 15 16 17 17 18 19 19 20 20 21 21 22 23 23 24 25 25 25 25 23 22 22 22 23 24 24 24 24 25 26 26 24 23 22 22 22 23 23 23 24 26 27 28 28 28 30 33 36 36 31 29 33 33 30 29 29 28 27 27 32 37 39 40 39 38 37 36
9 10 10 7 4 3 3 5 6 7 8 9 9 11 11 12 13 14 15 16 16 17 18 18 18 19 20 21 22 23 24 24 25 25 25 25 25 24 22 21 21 22 23 24 24 25 26 26 26 26 24 22 21 22 23 24 25 24 25 26 27 28 28 28 30 32 33 31 30 33 34 33 31 30 30 27 26 30 34 37 40 41 40 39 37
8 9 8 5 4 4 5 6 7 8 8 9 10 10 11 12 13 14 14 15 16 16 17 17 18 19 20 21 22 23 24 25 26 26 26 26 26 26 25 23 21 21 22 23 24 24 25 26 26 27 26 22 21 22 23 24 25 25 25 25 25 26 27 28 29 30 32 32 31 32 33 34 32 30 30 28 26 29 32 36 40 42 41 40 39
7 6 4 4 5 5 6 7 8 8 9 9 10 10 11 12 13 14 14 15 16 16 17 17 18 19 20 20 21 22 24 25 25 25 26 26 27 28 28 26 24 22 22 23 23 23 24 24 24 25 24 22 21 22 22 22 23 24 24 24 24 24 26 27 27 29 31 32 32 32 33 33 31 30 30 28 28 29 31 35 39 41 41 42 41
4 3 4 5 6 7 8 8 8 9 9 10 10 11 12 12 13 14 15 15 16 16 17 18 19 19 19 20 21 22 23 24 25 26 26 27 28 29 29 29 27 26 24 24 24 25 25 25 24 23 22 22 22 22 21 21 22 22 23 24 24 24 26 28 26 27 29 29 31 33 33 31 30 29 29 28 29 29 30 34 37 38 40 42 42
3 4 6 7 8 8 8 8 9 9 9 10 11 11 12 13 14 14 15 16 17 18 19 19 20 20 20 21 21 22 23 25 27 28 29 29 29 29 29 30 29 28 26 26 25 26 26 26 26 24 22 22 24 24 23 23 22 22 22 23 24 24 25 28 28 28 28 29 31 33 33 31 30 30 30 29 30 31 30 31 33 35 38 41 42
4 5 7 8 9 9 8 8 9 9 9 10 11 12 13 14 15 15 16 18 19 20 20 20 21 21 22 22 23 23 24 25 27 29 30 30 30 29 28 28 28 27 27 26 26 26 26 26 26 26 25 24 24 25 25 25 24 24 23 22 24 25 25 28 30 30 30 31 32 34 34 33 32 32 32 31 32 31 30 31 32 33 36 39 40
5 6 7 8 9 8 8 9 9 10 11 12 12 13 14 15 16 17 18 19 20 21 21 21 22 23 24 24 24 25 25 26 26 27 28 29 29 28 26 25 25 25 27 27 27 26 26 26 25 24 25 25 24 24 25 25 25 25 24 22 23 25 26 27 28 29 30 31 32 34 35 35 33 34 34 32 30 30 30 32 32 33 36 39 39
6 7 8 8 8 8 9 10 10 11 12 13 13 14 15 15 16 18 19 20 21 21 22 23 24 25 25 26 26 27 28 28 27 26 26 27 28 28 26 25 24 24 26 27 28 28 27 26 26 24 24 25 25 24 24 25 25 25 25 24 23 23 23 25 27 28 29 30 31 33 34 34 32 32 31 30 30 31 31 31 32 35 38 39 38
7 7 8 8 8 9 10 10 11 12 12 13 13 14 14 15 17 18 20 21 21 21 22 23 24 25 26 26 27 28 29 31 30 29 28 27 27 27 27 26 26 26 26 27 29 30 29 27 26 26 25 25 26 26 25 25 25 25 25 25 24 23 22 23 24 26 28 29 31 32 34 34 32 31 31 30 30 32 32 32 33 36 39 40 39
8 8 9 9 10 11 11 10 11 11 12 13 13 13 14 15 17 19 20 20 20 21 22 23 24 25 26 27 28 29 30 31 32 32 31 30 28 27 27 27 27 27 27 28 29 30 30 29 28 27 26 25 26 27 28 27 26 25 25 25 24 24 24 24 23 23 25 28 31 31 30 31 30 29 29 29 29 30 32 33 33 35 39 41 40
10 10 11 11 11 11 10 10 11 11 12 12 12 12 14 16 17 18 19 19 20 22 23 23 24 25 27 28 29 30 31 32 32 33 33 32 31 29 29 28 28 29 29 29 30 30 31 31 30 29 27 26 26 27 27 27 26 26 25 24 24 23 24 25 24 23 24 27 31 30 27 27 27 25 24 25 26 29 32 34 34 35 38 40 40
12 12 12 11 11 11 10 10 11 11 11 11 11 13 14 16 17 18 19 19 21 22 22 23 25 26 27 28 29 30 31 32 33 33 33 33 33 32 31 31 31 31 31 31 32 32 32 33 33 32 30 29 27 27 26 26 26 25 24 23 23 23 23 23 23 23 23 25 30 30 27 26 27 25 25 26 27 28 30 31 33 35 37 40 41
14 13 12 12 11 11 11 11 11 12 12 11 12 13 14 15 16 16 17 18 19 20 21 23 24 25 26 28 29 30 32 33 34 35 35 35 35 34 34 33 33 33 33 33 34 34 34 35 35 34 33 31 30 29 27 26 26 24 22 22 23 23 24 23 21 21 22 22 25 27 28 30 30 28 27 27 28 29 29 29 33 37 39 40 42
15 14 13 13 12 12 12 12 12 13 12 13 13 14 14 14 14 14 15 16 18 20 21 22 23 24 26 27 29 30 31 33 34 35 36 37 37 37 36 35 35 35 34 34 34 35 35 36 37 37 37 36 35 33 29 26 25 22 19 20 22 22 22 21 18 17 19 20 20 21 25 29 30 30 28 27 28 29 31 33 36 39 41 40 40
16 15 15 14 13 13 13 13 13 13 13 14 14 14 14 13 13 13 14 15 17 18 19 20 22 23 25 26 27 28 30 32 33 35 36 38 39 40 39 39 38 37 35 34 33 34 35 36 37 38 39 39 38 36 32 28 26 23 17 16 19 19 19 18 16 15 16 17 17 17 19 23 28 31 32 30 29 29 32 36 37 39 41 42 41
17 17 16 16 15 15 14 14 14 14 14 15 15 14 14 14 13 13 13 14 15 16 18 19 21 22 23 25 25 27 29 31 32 34 36 38 40 41 41 42 41 40 37 35 34 33 34 35 37 37 38 39 38 36 33 29 27 22 13 9 12 13 14 13 11 11 12 12 12 13 14 16 20 26 30 33 32 30 30 33 34 36 39 41 41
19 19 18 18 17 17 16 16 15 15 15 15 15 15 15 14 14 13 13 14 15 16 18 19 20 21 23 24 25 27 28 30 32 34 35 37 39 40 42 42 42 40 38 36 35 34 34 35 35 36 36 36 36 34 32 28 26 20 12 5 5 7 8 7 5 5 6 6 6 8 9 9 11 15 19 24 28 29 29 31 34 35 35 37 40
20 20 20 20 20 20 19 19 19 18 18 17 17 17 17 17 16 16 15 15 16 17 18 19 20 21 23 24 25 27 28 30 32 33 34 36 37 39 40 41 40 39 37 36 35 34 34 34 33 33 33 32 32 31 29 26 24 21 15 10 7 5 4 2 0 2 2 1 0 1 2 4 5 7 9 12 16 20 22 25 29 31 32 34 37
20 20 20 21 21 21 21 21 22 22 21 20 20 20 19 19 19 19 18 18 19 19 20 20 21 22 23 25 26 27 28 30 31 33 33 34 35 36 37 37 37 37 37 37 36 34 33 31 29 29 29 29 29 28 28 26 24 21 17 12 9 8 8 5 5 5 6 6 6 6 6 5 5 5 6 6 8 11 14 16 18 24 30 34 36
20 21 21 20 21 22 22 22 22 22 22 21 21 21 21 21 21 21 21 21 21 22 22 23 23 24 25 26 28 29 29 30 31 32 33 33 33 33 34 34 35 35 36 37 36 34 32 30 27 26 26 27 27 27 26 26 25 22 18 14 11 12 14 13 11 9 8 9 10 10 9 9 8 8 8 9 10 10 9 9 11 16 24 31 35
21 21 21 20 20 21 22 22 22 22 22 21 21 22 22 22 23 23 23 24 25 26 26 27 27 27 28 29 29 30 30 31 32 32 33 33 32 32 32 32 33 34 34 35 35 34 33 31 29 27 26 26 27 26 25 26 26 25 23 20 16 15 18 20 19 16 14 13 14 14 13 12 11 11 12 13 13 12 10 8 8 8 11 18 26
20 21 20 20 20 20 21 21 21 21 21 21 21 22 22 23 23 24 25 26 27 29 30 30 31 31 31 31 31 31 31 32 32 32 32 33 32 32 32 31 31 32 33 33 33 33 32 33 32 32 31 30 29 28 28 28 27 26 26 25 24 24 25 26 25 24 23 23 22 20 19 18 16 15 15 13 11 11 11 11 10 9 9 10 13
19 19 19 19 19 19 20 20 20 21 21 21 21 21 22 22 23 24 25 26 28 30 31 32 33 33 33 33 33 32 32 32 32 32 32 32 32 32 32 31 31 31 31 32 32 32 33 34 36 36 36 35 34 33 32 31 30 29 28 28 28 29 30 31 32 32 32 31 30 28 26 24 21 18 15 13 13 14 14 13 10 9 8 10 10
18 18 18 18 18 18 18 18 19 20 20 20 20 20 21 21 22 23 25 26 28 29 31 32 33 34 34 34 34 33 33 33 33 32 31 31 32 32 32 32 32 31 31 32 33 34 34 35 37 38 39 39 38 38 37 36 35 34 33 31 30 29 28 28 30 31 30 29 28 27 26 24 23 22 20 19 20 21 19 15 12 10 9 8 8
17 17 18 17 17 17 17 17 18 18 18 19 19 19 20 20 21 23 24 26 27 29 31 32 34 34 35 34 34 34 33 33 32 31 29 29 30 31 33 34 34 34 34 33 33 34 35 36 38 40 41 42 42 41 41 40 40 39 37 35 33 31 28 27 28 28 26 24 22 22 22 21 21 21 21 22 24 24 23 20 17 15 12 8 6
16 16 17 17 17 16 16 16 16 17 17 17 18 18 19 20 21 22 23 24 26 28 29 31 32 33 34 34 34 34 33 31 28 26 25 26 27 29 31 33 33 34 34 33 32 33 36 38 40 42 43 44 44 43 42 41 41 41 41 39 37 35 33 32 31 29 26 24 23 23 23 22 20 18 16 17 19 20 21 22 21 18 14 12 14
16 16 16 16 16 16 16 16 16 16 16 16 17 17 18 19 20 21 22 23 24 26 27 29 30 31 32 33 33 33 31 29 26 24 23 23 24 26 28 30 31 32 32 32 33 35 37 39 40 41 42 43 44 44 43 41 41 41 41 40 40 38 36 35 33 31 27 25 24 25 25 24 23 21 18 16 15 14 14 16 18 19 19 20 21
16 16 16 16 16 15 15 15 15 15 15 15 16 16 16 17 19 20 21 22 23 24 25 26 27 28 29 30 31 31 30 29 27 26 24 22 22 23 25 27 29 30 31 32 34 36 37 38 39 39 40 41 41 41 41 41 41 41 40 39 39 38 38 37 36 34 31 28 27 27 26 27 28 28 27 25 24 20 17 14 13 15 19 22 23
16 15 15 15 15 14 13 13 14 14 14 14 14 14 15 15 16 18 19 20 21 22 23 24 25 26 27 28 29 29 30 29 29 28 26 23 21 21 22 24 26 28 29 32 35 37 38 38 38 38 39 39 39 39 39 39 40 40 40 40 39 38 38 37 36 36 35 32 30 29 29 29 31 32 33 33 33 32 29 25 21 18 19 21 21
15 14 13 13 13 13 12 12 12 12 12 13 13 13 13 13 14 16 17 18 19 20 21 22 23 24 25 25 27 28 29 29 28 28 27 25 22 20 19 21 24 26 28 32 35 36 36 37 37 38 38 38 37 36 36 37 38 38 38 38 38 38 38 36 35 36 37 35 31 29 29 29 30 31 33 34 35 35 34 33 31 28 27 26 24
14 13 12 11 11 11 10 10 10 10 10 11 11 11 11 12 13 13 14 15 16 17 19 20 21 22 22 23 24 26 27 27 28 27 27 26 24 21 19 19 21 24 27 31 33 34 34 34 35 35 36 36 36 35 35 35 36 37 37 37 36 37 37 36 36 36 36 35 33 31 28 26 26 28 30 31 32 32 33 33 32 32 31 31 29
13 11 10 10 9 9 8 8 8 8 8 9 10 10 10 10 11 11 12 13 14 15 16 17 18 20 20 21 22 23 25 26 26 26 26 26 25 23 22 22 22 24 26 29 30 31 31 32 32 32 33 33 34 34 34 33 33 34 35 36 36 36 36 36 37 36 36 35 35 33 30 28 26 25 26 27 28 29 30 30 30 30 30 29 29
12 11 10 9 8 7 7 7 7 7 7 7 8 8 9 9 9 10 10 11 12 13 13 15 16 17 18 19 19 21 23 24 24 24 25 25 25 24 25 25 24 24 25 26 28 28 29 29 30 30 30 30 31 31 32 32 32 32 32 33 34 35 35 35 35 35 35 34 34 34 32 30 28 24 23 23 24 25 26 26 26 27 27 27 27
11 10 9 8 7 6 5 5 5 5 5 5 6 6 6 8 8 9 9 10 11 11 11 12 13 14 15 16 17 18 20 21 22 22 22 23 24 25 24 24 23 23 23 24 25 26 27 28 28 28 28 28 27 27 28 28 29 29 29 30 30 31 32 33 33 33 33 33 32 32 32 31 29 26 24 23 23 23 23 23 23 24 23 23 23
10 9 8 7 7 6 4 4 3 3 3 4 4 4 4 5 7 8 9 10 10 10 10 11 11 12 13 14 15 16 17 18 19 20 21 22 23 24 24 23 21 21 21 21 23 24 25 26 26 26 26 26 25 25 24 24 25 25 26 26 27 27 28 29 30 31 32 31 30 29 29 30 29 28 26 25 24 24 23 22 22 22 21 21 21
11 9 7 6 6 5 4 3 2 2 2 2 2 2 2 3 5 6 7 9 10 10 10 10 10 11 12 12 13 14 16 17 18 20 21 21 22 23 23 23 22 21 20 19 20 21 22 23 24 24 24 24 24 24 23 23 22 22 23 23 23 24 25 26 27 28 29 29 28 27 26 26 26 26 25 25 24 23 23 23 22 22 21 21 20
11 10 8 6 6 6 5 4 3 2 2 1 0 1 2 2 3 4 6 7 9 10 10 10 9 9 11 11 11 13 14 16 17 19 20 20 21 21 22 22 22 22 21 20 20 20 20 21 22 22 22 23 23 24 23 23 23 22 22 22 21 21 22 22 23 23 24 25 25 25 24 23 22 22 23 24 23 21 20 20 20 20 20 20 19
9 9 8 7 6 6 6 6 4 3 2 2 2 2 3 3 3 4 5 6 7 9 10 10 9 9 10 10 11 12 13 14 15 16 18 19 19 20 20 21 21 21 21 21 20 20 20 20 21 21 21 21 22 22 22 22 23 23 22 22 21 21 20 20 20 20 20 21 21 22 22 21 20 20 21 21 20 19 19 18 17 17 17 17 17
9 8 8 7 6 6 6 6 5 4 3 3 2 2 3 3 4 4 5 6 6 8 9 10 10 9 9 10 11 11 12 13 14 14 16 17 17 18 18 19 19 20 20 20 20 20 20 20 20 20 20 20 21 21 21 21 22 22 21 21 21 20 20 20 19 19 19 19 19 18 18 18 18 18 18 18 18 17 17 17 16 14 14 14 14
9 8 7 6 4 4 5 6 5 4 3 3 2 1 2 3 4 5 6 6 6 7 8 9 10 9 9 9 10 11 11 12 12 13 14 15 16 16 16 17 17 18 18 19 19 19 19 19 19 20 20 20 20 21 21 21 21 21 21 21 21 20 20 19 19 19 19 19 19 18 17 16 15 15 15 15 16 15 15 15 15 14 13 12 11
10 9 7 5 4 5 7 7 6 5 4 3 3 2 2 2 3 5 6 6 6 7 8 9 10 10 9 9 9 10 11 11 11 12 13 14 14 15 15 15 15 15 16 17 18 18 18 18 18 18 19 19 19 19 20 20 20 20 20 21 21 21 20 20 20 19 19 19 18 17 17 16 14 13 12 12 12 12 12 13 13 13 13 11 9
11 10 8 5 4 6 8 8 6 5 4 3 4 4 3 3 3 5 6 6 5 6 7 8 9 10 9 9 9 10 10 10 11 11 12 12 13 13 14 14 14 14 14 14 15 16 16 16 16 17 17 18 18 18 19 19 19 20 20 21 21 21 21 21 20 20 19 18 18 18 17 16 15 13 11 10 9 9 9 10 10 10 11 10 10
12 11 9 7 6 7 9 9 7 6 5 5 5 6 6 5 5 5 6 6 6 6 7 7 8 9 8 8 9 9 10 10 10 11 11 12 12 12 12 13 13 12 12 12 13 14 14 15 15 16 16 16 17 17 17 18 19 19 20 21 21 21 21 21 20 19 18 17 17 17 17 16 15 13 12 10 8 7 7 7 8 8 8 8 7
12 11 10 9 7 7 8 9 8 7 7 7 7 8 7 7 7 7 7 7 7 7 6 7 7 7 7 8 8 9 9 10 10 11 11 12 12 12 12 12 11 11 11 11 11 11 12 12 14 15 15 15 15 15 16 17 18 19 19 20 21 21 21 21 20 19 19 18 17 17 16 16 15 13 12 10 8 7 6 6 7 7 7 7 5
13 11 11 10 9 8 9 9 9 9 9 9 9 9 9 9 9 9 9 9 8 8 7 7 7 6 7 8 8 9 10 10 11 11 11 11 12 12 12 11 11 10 10 10 10 10 10 10 11 12 13 13 13 13 14 15 16 17 18 19 19 20 21 21 21 21 20 19 18 17 17 16 15 13 12 11 9 8 7 7 7 7 7 7 6
14 12 11 11 10 10 10 10 11 11 11 11 11 11 11 11 11 11 11 11 10 10 9 9 8 7 7 8 8 9 10 11 11 12 12 12 12 12 11 11 11 11 10 9 9 8 9 9 9 10 10 10 10 11 12 13 14 15 16 16 17 18 19 19 20 20 20 19 18 18 17 16 15 14 13 12 11 10 9 8 7 7 6 6 6
14 13 13 12 12 12 11 12 12 12 13 13 13 13 13 13 12 12 12 12 12 11 10 10 9 9 8 9 9 9 10 11 11 12 12 12 12 12 12 11 11 11 10 10 9 8 8 8 9 9 9 9 9 9 9 10 11 12 13 14 15 15 16 17 17 18 19 19 18 18 17 16 14 13 13 12 12 11 10 10 9 8 7 6 5
15 15 15 15 14 13 13 13 13 13 13 14 15 15 15 14 14 13 13 13 12 11 11 11 10 10 10 10 11 11 11 11 12 12 13 13 13 13 12 12 11 11 11 10 10 9 9 8 8 8 9 9 8 8 9 9 10 11 12 13 13 14 14 15 15 16 16 17 17 17 17 16 15 14 13 12 12 11 11 11 10 10 9 7 6
Wind_Direction
352 350 351 350 344 344 350 351 349 344 341 340 338 339 340 339 339 338 339 339 339 340 340 341 341 341 341 341 339 338 338 338 338 338 339 339 338 333 325 316 309 304 302 299 298 298 300 299 295 291 290 289 287 288 289 285 282 279 270 263 261 260 258 251 245 244 243 241 246 252 248 243 243 240 234 232 228 225 224 224 224 224 223 222 221
347 351 355 355 354 4 14 4 358 353 349 347 346 348 348 349 351 350 350 350 350 350 349 349 349 348 348 348 346 345 344 343 343 342 342 342 343 342 338 331 324 317 311 307 304 302 302 302 301 299 295 292 290 288 286 283 279 279 279 275 272 266 259 254 250 247 246 241 239 248 249 244 243 241 234 232 230 226 224 223 223 224 224 223 222
347 351 354 359 11 40 46 22 16 8 4 3 1 1 0 360 359 358 357 357 356 355 354 353 352 351 350 349 346 344 343 342 342 342 342 341 341 341 339 336 331 325 318 312 306 303 302 302 304 307 305 297 293 290 288 284 278 275 279 281 279 275 267 260 253 247 247 242 234 241 248 246 244 242 238 236 233 229 226 223 223 224 224 223 222
349 353 1 17 52 77 55 38 31 22 19 15 11 9 6 4 2 0 359 357 356 354 352 351 349 347 346 345 343 341 340 339 340 341 342 342 341 340 338 335 331 327 322 316 308 302 300 300 301 306 308 303 297 295 293 291 287 280 278 278 276 274 272 268 260 250 247 244 236 237 245 248 247 244 241 238 234 231 228 225 225 224 224 224 223
352 360 16 46 80 73 51 42 33 26 23 17 13 10 5 3 1 358 357 355 354 351 349 347 346 344 343 343 342 341 340 340 339 340 341 342 342 341 339 336 332 329 326 321 315 309 303 300 298 300 303 304 300 297 296 296 293 285 281 279 275 273 271 268 264 256 251 247 242 239 242 246 247 243 240 237 233 231 228 226 226 225 224 225 224
359 12 39 76 82 64 49 39 31 27 23 17 14 10 5 2 0 359 359 358 355 353 352 351 351 349 347 346 345 345 345 344 342 341 342 341 341 341 341 340 336 332 328 325 324 322 316 309 302 297 297 298 295 292 293 294 293 287 282 279 276 275 273 269 264 259 254 249 244 242 242 244 243 241 238 234 232 231 228 226 228 227 224 225 225
13 43 80 86 73 61 49 39 32 26 23 20 15 12 10 8 7 6 5 3 1 1 1 0 359 357 354 353 352 352 350 348 346 346 348 347 344 343 343 341 339 338 337 335 333 331 328 324 317 307 297 289 285 285 287 288 289 287 282 277 273 272 273 273 267 262 257 252 246 244 244 244 242 240 239 236 235 236 233 229 229 228 226 226 226
60 79 84 77 66 58 49 41 36 31 27 24 22 20 20 17 16 15 13 11 11 10 10 8 6 4 2 0 359 356 354 353 353 353 352 351 349 347 346 344 342 342 342 341 339 335 332 329 326 320 308 292 282 280 281 280 281 281 278 275 272 270 272 273 269 262 257 253 250 248 247 245 243 241 239 236 234 234 236 236 234 231 228 226 226
83 83 77 70 63 57 50 43 41 39 36 35 34 31 29 26 24 23 21 20 20 18 16 14 12 11 10 7 5 1 359 0 2 359 356 354 353 352 351 347 345 343 340 339 338 336 334 331 329 326 320 308 292 280 276 274 273 273 272 272 271 270 271 272 270 263 257 251 248 247 246 245 244 242 237 235 234 234 237 239 238 236 233 230 227
91 85 77 72 67 58 52 49 47 47 45 44 42 39 35 32 29 27 26 24 23 22 20 18 17 16 15 13 11 9 7 8 7 2 360 359 358 356 355 353 350 346 342 341 338 336 335 333 331 327 323 317 306 291 280 275 272 269 266 265 266 268 270 270 269 265 260 255 250 245 243 243 245 244 241 241 241 239 239 239 238 237 235 232 228
98 91 82 75 70 62 58 56 52 52 50 47 45 42 37 34 31 29 28 26 24 22 20 20 20 19 18 18 16 16 15 14 11 5 3 2 1 0 359 359 358 354 350 347 344 342 339 335 333 330 327 323 317 306 293 282 276 271 266 261 259 262 266 269 270 267 262 258 253 249 245 244 245 247 248 246 244 241 240 241 239 235 231 229 228
105 98 87 79 74 67 63 59 55 54 52 49 46 43 39 37 34 31 29 26 24 22 21 21 21 20 20 19 19 19 20 18 15 11 8 5 3 2 2 3 4 2 358 355 352 349 345 340 338 335 332 328 323 317 306 293 281 275 270 265 259 255 256 261 267 269 267 262 257 252 250 247 244 244 244 242 243 246 245 242 241 237 233 231 231
111 104 94 84 77 70 63 59 58 55 53 49 47 44 41 39 37 34 31 28 25 24 24 23 22 22 22 22 21 21 20 19 17 15 14 10 6 4 4 5 6 6 4 2 359 355 351 348 346 341 335 330 326 322 316 306 291 279 272 269 263 257 254 254 258 263 267 268 263 257 254 251 246 243 242 238 239 246 248 245 243 241 238 237 236
112 103 95 84 75 69 63 61 59 56 54 51 47 45 43 41 39 36 32 30 28 28 27 26 26 26 25 24 24 22 22 21 18 16 16 14 11 9 8 8 8 8 7 6 4 1 357 356 353 348 341 336 332 328 324 318 305 288 277 271 267 261 257 256 256 257 259 262 263 260 258 255 251 251 252 248 244 246 248 248 247 244 243 241 239
109 100 92 83 76 71 66 63 62 61 58 55 51 49 47 43 41 37 32 31 31 30 30 29 29 29 28 27 26 25 25 23 20 19 17 15 13 12 11 11 10 10 9 8 7 5 2 1 358 354 349 344 339 336 333 330 319 300 283 275 271 264 259 258 257 257 257 257 259 260 261 260 258 256 257 256 254 253 252 252 253 251 245 240 238
105 99 92 86 80 74 71 69 69 67 63 60 57 54 51 46 42 38 34 33 32 32 32 31 31 31 30 30 29 27 26 25 23 21 19 18 16 15 14 13 13 13 12 10 9 8 6 4 1 358 354 350 346 342 339 338 330 310 287 277 273 266 260 258 257 258 259 256 256 258 258 258 258 257 256 255 255 255 254 251 250 247 240 234 233
103 98 92 87 82 79 77 74 72 70 66 63 60 56 53 49 44 40 36 34 34 33 32 32 31 31 31 30 29 27 27 25 23 22 21 20 19 18 17 16 15 15 13 11 10 9 10 9 5 1 359 356 352 348 344 343 337 319 291 277 277 271 261 259 261 261 258 254 253 255 256 255 255 254 254 254 254 254 252 247 243 239 235 232 231
100 96 91 88 85 81 78 74 71 68 64 62 60 58 55 51 46 42 37 35 35 34 33 31 30 30 30 29 28 27 26 26 23 22 21 20 20 20 19 18 17 15 12 11 10 9 10 10 8 5 2 359 356 352 349 348 343 328 302 280 280 276 264 259 262 264 262 258 255 255 256 255 254 253 253 253 254 254 252 249 244 238 235 235 235
98 95 93 91 88 83 79 74 71 68 65 64 62 59 57 54 50 46 41 38 37 35 33 31 30 30 30 29 29 28 28 27 25 23 21 21 20 20 19 18 17 14 11 10 10 9 9 9 9 7 4 360 357 354 353 352 346 335 318 292 288 282 269 264 268 267 267 266 262 260 260 259 257 256 254 251 250 249 249 250 248 245 241 238 236
99 99 97 94 91 86 82 79 76 73 71 70 68 65 62 60 57 53 50 46 43 39 36 34 33 34 33 31 31 30 29 29 27 24 22 21 20 20 19 18 16 13 11 10 9 9 8 8 8 8 4 1 359 357 356 355 349 342 339 343 337 313 290 281 275 261 257 260 261 265 271 274 273 270 265 259 255 251 247 243 241 243 246 244 239
101 101 99 96 93 89 84 81 79 77 77 75 73 71 68 66 64 62 60 56 51 47 43 40 39 38 36 35 34 32 31 31 29 27 24 22 21 21 20 19 16 14 14 13 12 11 9 7 8 9 7 5 5 4 3 1 356 354 1 15 30 18 341 324 93 132 132 118 168 290 300 298 299 300 293 281 271 261 253 245 239 239 244 246 245
103 103 102 98 93 87 82 79 77 77 78 78 76 74 71 69 67 65 62 58 54 51 48 46 44 42 39 38 36 35 34 32 31 29 26 24 23 22 21 20 18 16 17 18 17 15 12 10 10 10 10 10 12 13 13 11 9 9 12 18 42 68 71 68 77 86 86 83 81 75 64 46 30 15 353 330 309 285 266 257 254 251 247 243 241
104 103 102 99 93 87 81 77 75 75 77 77 76 75 73 70 67 64 60 57 55 53 51 48 46 44 41 39 37 36 35 34 32 30 27 25 25 24 23 22 21 20 21 22 22 20 18 17 14 13 12 13 17 21 23 26 28 29 27 24 37 67 79 80 79 79 79 79 78 73 64 51 41 31 26 22 10 346 306 280 275 267 252 241 235
104 102 100 97 94 89 83 79 76 74 75 76 75 74 72 69 66 63 60 58 56 54 52 49 47 44 42 40 38 36 35 34 33 31 29 27 27 27 26 25 24 24 24 26 26 25 24 23 22 21 21 21 24 27 32 38 41 41 41 40 41 52 66 72 74 74 72 70 68 66 60 51 41 30 24 21 17 10 357 336 325 310 278 255 243
107 102 100 97 95 91 86 82 79 76 76 76 73 71 69 66 64 62 60 58 56 55 53 50 47 45 43 40 39 37 35 34 33 32 30 29 28 29 30 29 28 27 28 29 30 29 30 30 30 31 31 29 30 32 35 40 44 46 48 50 50 51 54 60 65 67 67 66 64 62 59 55 50 44 35 25 15 13 11 2 351 343 333 312 275
111 106 102 98 96 94 90 86 82 78 77 75 73 70 67 65 63 61 59 58 56 54 52 50 47 45 43 41 39 37 35 35 34 32 30 28 28 29 31 33 33 32 32 33 34 34 35 35 36 37 38 37 37 38 38 40 43 45 47 50 52 53 53 55 59 63 66 67 67 67 66 64 62 58 50 42 36 31 25 15 358 346 336 330 322
115 111 107 102 99 97 94 91 86 81 78 75 73 71 68 66 64 61 59 57 55 53 51 49 47 45 43 42 40 37 36 35 34 32 29 28 29 31 34 36 37 37 36 35 35 35 37 38 39 40 41 42 42 42 42 42 43 44 45 46 49 51 52 54 57 60 63 64 66 67 67 66 64 61 56 53 52 48 42 35 28 28 18 348 333
118 115 111 107 103 100 98 95 90 85 81 77 74 71 68 66 63 60 58 56 54 52 50 48 46 44 43 41 39 38 36 35 33 32 29 28 30 33 36 38 38 39 40 38 37 37 37 38 40 40 39 40 40 41 43 44 45 46 46 46 46 46 47 49 52 55 56 55 54 55 55 54 55 56 57 60 60 57 52 48 48 47 40 29 41
120 118 115 111 107 103 99 98 95 90 85 80 76 73 70 66 63 60 57 55 53 52 50 48 46 44 42 40 38 37 36 35 33 31 30 31 32 34 37 38 39 39 40 39 39 39 38 38 38 38 37 37 37 38 40 42 44 45 46 46 46 45 46 46 46 47 47 47 46 45 44 44 47 50 54 59 61 60 56 54 56 59 59 64 75
123 121 117 113 110 105 100 97 96 94 90 85 79 75 71 68 65 61 58 55 53 51 50 48 47 44 42 40 38 37 36 35 33 31 32 34 35 36 39 40 40 39 39 39 39 40 40 40 39 38 38 37 37 37 38 39 42 44 45 46 46 46 47 47 46 45 44 45 46 44 42 43 47 49 51 54 56 58 59 57 57 60 66 73 80
129 123 119 115 111 107 103 99 95 93 91 88 82 77 72 68 66 62 59 56 53 51 49 47 45 43 42 41 40 38 37 35 33 32 33 36 37 38 40 42 42 40 39 40 41 41 41 42 41 41 40 39 39 38 38 39 40 42 44 45 46 46 47 47 45 44 44 47 51 51 51 53 56 58 59 60 60 60 62 63 61 65 72 76 81
137 128 120 115 111 107 105 102 97 92 88 84 80 76 71 68 65 62 59 57 53 51 48 46 44 42 40 39 39 37 36 35 33 32 33 36 38 38 38 41 42 42 41 42 43 43 42 42 42 41 40 40 40 40 40 40 40 40 41 42 43 44 46 46 46 45 45 49 56 61 61 61 62 62 62 63 64 64 65 65 66 69 74 77 80
144 137 128 120 113 108 106 106 103 97 88 80 75 71 67 65 63 60 57 55 52 50 47 44 42 40 38 37 37 36 34 33 33 33 33 35 37 38 39 40 41 41 42 43 43 42 41 42 42 41 40 40 40 40 41 42 42 41 41 40 41 42 44 45 47 48 49 52 58 63 65 64 62 61 61 61 63 64 65 66 68 69 72 74 77
147 142 133 123 116 110 108 110 109 102 90 79 70 64 60 59 58 57 54 51 48 46 44 42 39 37 36 35 34 34 33 32 32 32 33 34 35 37 39 43 45 44 43 43 42 40 39 40 40 40 40 40 40 40 41 42 42 43 43 43 43 44 44 45 47 48 50 52 55 58 60 60 58 58 59 60 61 62 63 64 66 67 68 70 73
149 146 139 132 125 116 112 114 114 106 92 78 66 58 53 50 51 52 50 46 43 40 38 38 36 34 32 31 31 30 30 30 30 31 32 33 33 34 37 41 43 44 44 42 40 38 37 37 38 38 39 39 40 40 40 40 41 43 44 45 45 45 45 46 46 47 49 51 54 55 55 55 54 55 57 60 61 61 59 59 60 61 64 67 69
153 156 153 148 142 133 124 122 121 114 98 79 65 55 48 46 48 49 45 38 35 33 32 32 32 30 29 28 28 27 26 27 28 29 31 32 32 32 35 39 41 41 41 40 39 38 37 36 36 35 36 36 37 39 39 40 40 42 43 44 44 44 45 45 45 46 48 49 51 53 54 56 56 56 57 59 61 61 60 57 56 57 59 63 67
159 162 165 165 163 155 143 134 130 125 108 86 70 57 49 45 48 49 45 38 32 28 26 26 27 27 27 26 25 25 24 24 25 29 32 33 33 34 35 38 39 39 38 37 36 35 35 35 34 33 32 33 33 35 37 38 39 40 41 42 43 44 44 45 45 45 46 48 49 50 51 53 55 58 61 62 62 61 62 61 59 59 59 61 63
169 168 171 176 178 174 165 152 143 142 125 92 75 65 55 48 46 45 44 41 36 30 26 25 24 23 24 23 22 23 23 21 23 28 31 33 35 37 37 37 37 37 36 34 33 32 31 32 32 31 30 30 31 32 34 35 36 37 37 39 41 43 44 46 46 46 46 46 47 48 48 49 51 53 58 62 63 63 64 64 63 63 62 62 62
181 180 183 189 192 193 194 192 181 174 155 99 74 62 50 44 38 34 32 33 31 29 28 28 26 24 22 20 19 21 21 19 21 26 29 31 33 36 37 37 37 36 34 31 30 29 29 29 30 30 30 30 31 32 33 34 35 35 35 35 37 39 41 43 44 44 44 44 45 46 48 49 49 49 51 54 58 61 63 65 66 65 65 65 65
186 188 195 205 208 208 211 216 220 223 222 206 283 341 352 7 13 14 14 15 18 20 20 23 27 27 22 17 17 19 19 18 20 22 25 28 30 33 35 36 36 35 34 31 29 28 28 27 28 29 30 32 33 34 35 35 35 36 35 34 34 34 35 37 39 40 41 41 42 43 45 48 49 49 49 50 51 53 56 60 62 64 65 66 67
191 197 204 211 213 216 221 224 221 224 230 234 256 304 322 326 334 346 351 353 358 4 9 13 19 24 22 16 15 16 16 16 17 19 20 23 27 29 31 33 34 34 34 33 31 30 29 28 28 29 30 33 34 34 34 35 36 35 35 34 34 33 32 33 34 35 36 37 37 39 41 43 45 47 48 49 50 52 54 56 58 59 62 65 66
202 209 213 215 215 218 223 220 212 215 226 228 241 310 319 317 324 333 337 337 338 346 357 3 7 14 17 13 11 11 10 10 11 12 14 18 22 24 27 29 31 31 32 33 32 31 29 28 28 29 29 30 32 31 31 31 32 31 31 31 30 30 31 31 31 31 32 33 32 32 34 38 42 46 48 48 49 51 53 56 59 60 61 64 65
208 212 213 217 222 218 213 209 207 207 208 201 199 273 323 330 335 337 336 329 323 329 344 355 360 5 10 9 7 6 5 4 4 6 7 11 16 20 22 24 26 28 30 30 30 30 29 27 26 26 26 26 27 27 27 28 28 28 28 28 27 27 27 28 28 28 28 28 27 26 28 32 37 43 48 49 49 49 51 54 57 59 60 62 64
210 212 212 220 231 217 203 203 206 201 193 193 206 239 301 331 338 342 342 331 317 320 334 345 353 358 2 3 3 3 2 0 0 1 2 4 8 13 17 20 21 23 26 28 29 29 27 25 24 24 24 24 24 24 24 25 26 25 25 26 26 26 26 27 27 27 26 25 23 22 24 27 31 36 44 50 50 48 48 49 51 53 53 55 59
213 215 217 228 237 216 201 197 201 206 211 222 236 252 276 301 324 343 348 340 325 322 330 339 348 353 356 359 2 2 2 2 1 359 358 359 1 5 10 14 16 18 20 23 26 28 27 25 23 23 23 23 23 22 23 24 24 24 24 24 24 25 26 26 26 26 25 24 24 24 24 25 27 29 35 44 49 49 46 43 43 44 45 48 51
217 219 223 232 240 223 208 204 208 221 237 251 259 263 271 282 295 317 337 344 341 332 328 334 342 347 350 355 360 1 2 3 2 0 358 357 357 359 2 6 10 12 13 14 18 23 26 27 25 23 23 23 23 23 24 26 26 26 26 26 25 25 25 26 26 26 24 24 25 25 25 25 26 27 27 31 37 41 41 37 33 30 32 37 44
220 225 229 236 242 234 224 222 227 236 245 254 260 264 268 274 283 293 308 326 337 338 333 331 336 340 342 347 352 355 358 360 0 0 360 358 357 355 355 357 1 4 5 6 8 12 18 23 24 24 24 25 26 27 28 30 31 31 30 30 30 29 28 28 27 26 25 24 23 24 25 26 27 28 27 26 26 27 30 30 28 26 24 24 28
224 229 232 238 242 240 239 241 243 245 252 260 264 265 266 271 279 286 293 303 316 325 327 326 324 325 329 333 337 342 346 349 350 353 355 355 354 353 351 351 352 353 355 358 359 359 2 7 12 16 19 22 26 28 29 30 31 31 31 31 31 31 30 30 28 26 25 24 23 22 23 25 27 28 28 27 23 21 20 19 18 19 20 19 18
229 232 236 242 244 244 246 252 254 256 262 267 268 268 269 272 277 283 288 294 301 308 314 314 311 309 314 320 323 327 331 334 337 340 341 343 344 344 344 345 345 344 344 346 347 348 350 352 353 357 4 10 15 19 21 21 23 25 25 26 27 27 27 27 26 25 25 24 23 21 21 22 23 25 27 28 26 21 17 13 9 5 4 4 5
231 234 240 246 248 247 250 256 260 263 267 269 269 271 272 274 278 282 285 289 294 299 304 305 301 298 303 311 316 319 324 326 327 328 328 329 330 331 332 334 335 335 335 335 334 334 337 339 341 344 348 351 355 360 4 7 10 13 14 15 16 17 18 18 19 20 20 21 21 22 21 20 19 18 19 21 22 20 16 12 8 2 356 351 347
235 238 244 249 249 249 251 256 260 263 265 268 270 273 274 276 280 283 284 286 289 292 297 300 298 294 295 301 306 312 317 320 322 324 323 320 319 319 320 321 322 323 324 324 324 323 322 321 323 327 331 335 338 341 345 350 355 358 360 1 1 2 4 6 8 10 12 13 15 17 18 18 18 15 12 11 11 11 11 9 7 4 359 353 343